Weather in Damaturu

Nigeria     11°44′27″N   11°57′51″E
temp.,
°C
wind,
m/s
gust,
m/s
humid.,
%
clouds,
%
prec.,
mm/h
press.,
hPa
HPBL,
m
8 may, sat
sat801:00+26sse4861100 0.3 1011341
04:00+26sw355487 0.0 1011104
07:00+27sw4654100 0.0 1012301
10:00+33s443486 0.0 10131049
13:00+31se4437100 0.0 1011475
16:00+38e461815 0.0 10073297
19:00+33e472778 0.0 1008103
22:00+29s494990 0.0 1011240
9 may, sun
sun901:00+29sw2348100 0.0 1010112
04:00+28ssw475267 0.0 1010198
07:00+28ssw6854100 0.0 1011489
10:00+33sw764087 0.0 10121067
13:00+37sw562982 0.0 10092643
16:00+34nnw443462 0.1 10081010
19:00+32sse332641 0.3 100751
22:00+29sw223696 0.1 101015
10 may, mon
mon1001:00+30ssw374398 0.1 1009174
04:00+29ssw7124685 0.0 1009465
07:00+28sw595643 0.0 1012469
10:00+35wsw663455 0.0 10111394
13:00+39wsw36225 0.0 10083429
16:00+39nne651898 0.1 10051899
19:00+34s232450 0.1 100644
22:00+31ssw5840100 0.0 1010388
11 may, tue
tue1101:00+27ssw595748 0.0 1009196
04:00+27ssw5105698 0.0 1010365
07:00+27sw5958100 0.0 1012395
10:00+33w5534100 0.0 1012944
13:00+39wsw5322100 0.0 10092042
16:00+39sse1319100 0.0 10062355
19:00+32s343299 0.0 100761
22:00+31sw233491 0.0 100929
12 may, wed
wed1201:00+29ssw33391 0.0 100837
04:00+28sw410440 0.0 1008189
07:00+29ssw712510 0.0 1010431
10:00+35sw76315 0.0 10111049
13:00+40ssw3720100 0.0 10083450
16:00+41ne241382 0.0 10054285
19:00+36se221626 0.0 100519
22:00+32s363266 0.0 1009123